[[{"header":{"parameterUnit":"m.s-1","parameterCategory":1,"la1":30.2991,"la2":30.254,"lo1":-89.0895,"lo2":-89.0444,"dy":0.0017,"dx":0.0017,"nx":28,"ny":28,"refTime":"2025-08-02T21:00:00:Z","depth":0,"parameterNumber":2,"parameterNumberName":"U-component_of_WINDS"},"data":[0,0,0,0,0,0,0,0,0,0,0,0,0,0,0,0,0,0,0,0,0,0,0,0,0,0,0,0,0,0,0,0,0,0,0,0,0,0,0,0,0,0,0,0,0,0,0,0,0,0,0,0,0,0,0,0,0,0,0.2173,0.2173,0,0.2185,0.2185,0.2186,0.2199,0.2199,0.22,0.22,0.2214,0.2214,0.2214,0,0,0,0,0,0,0,0,0,0,0,0,0,0.2161,0.2161,0.2173,0.2173,0.2173,0.2185,0.2185,0.2186,0.2199,0.2199,0.22,0.22,0.2214,0.2214,0.2214,0,0,0,0,0,0,0,0,0,0,0,0,0,0.2169,0.2161,0.2173,0.2181,0.2182,0.2185,0.2185,0.2186,0.2199,0.2199,0.22,0.22,0.2214,0.2214,0.2214,0.221,0,0,0.2215,0.2215,0,0,0,0,0,0,0,0,0.2168,0.2169,0.218,0.2181,0.2182,0.2191,0.2186,0.2194,0.2199,0.2193,0.22,0.22,0.2206,0.2207,0.2209,0.2211,0.2211,0.2215,0.2215,0.2215,0.2215,0,0,0,0,0,0,0,0.2168,0.2169,0.2178,0.218,0.2181,0.2185,0.2186,0.2188,0.2198,0.2193,0.2194,0.2195,0.2207,0.2208,0.2209,0.2212,0.2215,0.2215,0.2216,0.2216,0.2211,0.2211,0,0,0,0,0,0,0.2166,0.2168,0.2177,0.2178,0.2175,0.2184,0.2186,0.2188,0.2198,0.2199,0.2195,0.2196,0.2208,0.2209,0.221,0.2206,0.2215,0.2216,0.2216,0.2212,0.2211,0.2211,0,0,0,0,0,0,0.2166,0.2166,0.2177,0.2173,0.2175,0.2184,0.2186,0.2188,0.219,0.2199,0.2201,0.2195,0.2208,0.2209,0.221,0.2207,0.2216,0.2216,0.2212,0.2212,0.2211,0.2198,0,0,0,0,0,0,0.2165,0.2166,0.2165,0.2173,0.2175,0.2177,0.2186,0.2188,0.219,0.2191,0.22,0.2201,0.2208,0.2209,0.221,0.2207,0.2216,0.2212,0.2212,0.2211,0.2199,0.2197,0.2196,0,0,0,0,0,0.2165,0.2161,0.2165,0.2166,0.2173,0.2176,0.2177,0.2185,0.219,0.2188,0.2194,0.2201,0.2207,0.2209,0.221,0.2207,0.2213,0.2212,0.2211,0.22,0.2198,0.2196,0,0,0,0,0,0,0.2152,0.2162,0.2166,0.2165,0.217,0.2179,0.2177,0.2183,0.2187,0.2188,0.2197,0.2199,0.2199,0.2203,0.2206,0.2204,0.2211,0.221,0.2201,0.22,0.2198,0.2197,0.2217,0,0,0,0,0,0.2149,0.215,0.2159,0.2157,0.2159,0.2168,0.2169,0.2175,0.218,0.2182,0.2188,0.2193,0.2196,0.2198,0.2201,0.2199,0.2202,0.2198,0.2196,0.2195,0.2195,0.2194,0.2193,0.2209,0.2209,0.2209,0,0,0.2143,0.2149,0.2149,0.2155,0.2159,0.216,0.2169,0.217,0.2172,0.2183,0.2184,0.2188,0.2194,0.2194,0.2194,0.2197,0.2191,0.2194,0.2193,0.2194,0.2193,0.2192,0.2191,0.2208,0.2209,0.2209,0,0,0.2133,0.2137,0.2136,0.214,0.2146,0.2152,0.2151,0.2159,0.2163,0.2164,0.2172,0.2173,0.2178,0.2182,0.2185,0.2176,0.2183,0.2177,0.2169,0.2169,0.2167,0.2166,0.2164,0.2162,0.2176,0.2176,0.2176,0,0.2125,0.2127,0.2135,0.2136,0.2138,0.2147,0.2146,0.215,0.2157,0.2158,0.2162,0.2168,0.2173,0.2173,0.2171,0.2173,0.2173,0.2176,0.2167,0.2166,0.2165,0.2162,0.2161,0.2176,0.2176,0.2176,0.2176,0,0.2117,0.2119,0.2117,0.2123,0.2125,0.2125,0.2133,0.2134,0.2139,0.2145,0.2146,0.2152,0.2156,0.2157,0.2162,0.2158,0.216,0.2165,0.2172,0.2163,0.216,0.2159,0.2175,0.2175,0.2175,0.2175,0,0,0.2101,0.211,0.211,0.2113,0.212,0.2121,0.2121,0.2125,0.2126,0.213,0.2131,0.2135,0.2139,0.2143,0.2148,0.2148,0.214,0.2153,0.2153,0.2151,0.2137,0.2133,0.2132,0.2144,0.2144,0.2144,0.2136,0,0.2092,0.2093,0.21,0.2099,0.21,0.2109,0.2109,0.2113,0.2118,0.212,0.2125,0.2128,0.2134,0.2136,0.2135,0.2141,0.2138,0.2142,0.2146,0.2146,0.2144,0.2131,0.2127,0.2119,0.2135,0.2135,0.2135,0,0.2083,0.2086,0.2085,0.2092,0.2093,0.2093,0.2097,0.2099,0.2104,0.2107,0.2111,0.2117,0.2118,0.2124,0.2125,0.2128,0.213,0.2133,0.2133,0.2134,0.214,0.2132,0.2117,0.2116,0.2134,0.2134,0.2134,0,0.2071,0.2075,0.2075,0.2077,0.2085,0.2085,0.2088,0.2094,0.2096,0.2099,0.2101,0.2105,0.2107,0.211,0.2117,0.2121,0.2118,0.2124,0.2121,0.2121,0.2121,0.2121,0.2107,0.2121,0.2121,0.2121,0.2121,0,0.2061,0.2061,0.207,0.207,0.2069,0.2077,0.2076,0.208,0.2085,0.2086,0.2094,0.2095,0.2104,0.2106,0.2111,0.2112,0.2113,0.2116,0.2118,0.2116,0.2115,0.2117,0.2118,0.2121,0.2121,0.2121,0.2121,0,0.2049,0.2055,0.2055,0.2063,0.2064,0.2064,0.207,0.207,0.2075,0.2077,0.2077,0.2085,0.2088,0.2095,0.21,0.2104,0.2103,0.2106,0.2101,0.2102,0.2099,0.2099,0.2086,0.2085,0.2099,0.2099,0.2099,0,0.2042,0.2042,0.2049,0.205,0.2053,0.2055,0.2056,0.2064,0.2066,0.2071,0.2071,0.2074,0.2077,0.2081,0.2088,0.2091,0.2094,0.2089,0.2095,0.2093,0.2095,0.2095,0.2095,0.2089,0.2088,0.2088,0.2088,0,0.2031,0.2034,0.2036,0.2039,0.2041,0.2044,0.2048,0.2048,0.2056,0.2058,0.2061,0.2063,0.2068,0.2071,0.2075,0.2079,0.2085,0.2086,0.2086,0.2084,0.2082,0.2083,0.2098,0.2087,0.2087,0.2087,0.2087,0.2087,0.2021,0.2021,0.2026,0.2028,0.2032,0.2035,0.2035,0.204,0.2042,0.2046,0.205,0.2053,0.2058,0.2065,0.2068,0.207,0.2073,0.2072,0.2072,0.2072,0.2071,0.2081,0.2071,0.2071,0.2071,0.2071,0.2071,0,0.201,0.2014,0.2016,0.202,0.2022,0.2026,0.203,0.2032,0.2034,0.2038,0.204,0.2043,0.2046,0.2053,0.2056,0.2057,0.206,0.2058,0.2058,0.2059,0.2068,0.2068,0.2055,0.2055,0.2055,0.2055,0.2055,0.2055,0.2005,0.2005,0.2008,0.201,0.2014,0.2016,0.2018,0.2021,0.2024,0.2027,0.2029,0.2033,0.2038,0.2042,0.2045,0.2047,0.2048,0.2045,0.2048,0.2057,0.2058,0.206,0.206,0.2045,0.2045,0.2039,0.2039,0.2039]},{"header":{"parameterUnit":"m.s-1","parameterCategory":1,"la1":30.2991,"la2":30.254,"lo1":-89.0895,"lo2":-89.0444,"dy":0.0017,"dx":0.0017,"nx":28,"ny":28,"refTime":"2025-08-02T21:00:00:Z","depth":0,"parameterNumber":3,"parameterNumberName":"V-component_of_WINDS"},"data":[0,0,0,0,0,0,0,0,0,0,0,0,0,0,0,0,0,0,0,0,0,0,0,0,0,0,0,0,0,0,0,0,0,0,0,0,0,0,0,0,0,0,0,0,0,0,0,0,0,0,0,0,0,0,0,0,0,0,1.9839,1.9839,0,1.9851,1.9851,1.9851,1.9893,1.9894,1.9895,1.9896,1.9906,1.9905,1.9905,0,0,0,0,0,0,0,0,0,0,0,0,0,1.9849,1.9848,1.9839,1.9839,1.9839,1.9851,1.9851,1.9851,1.9893,1.9894,1.9896,1.9897,1.9906,1.9906,1.9905,0,0,0,0,0,0,0,0,0,0,0,0,0,1.9851,1.9848,1.9839,1.9862,1.9864,1.9851,1.9851,1.9851,1.9893,1.9894,1.9896,1.9897,1.9907,1.9906,1.9905,1.987,0,0,1.9902,1.9901,0,0,0,0,0,0,0,0,1.9851,1.985,1.9858,1.986,1.9862,1.9872,1.9858,1.9857,1.9893,1.9882,1.9896,1.9898,1.9893,1.9894,1.9893,1.987,1.9871,1.9902,1.9901,1.9901,1.99,0,0,0,0,0,0,0,1.9851,1.985,1.9844,1.9858,1.9861,1.987,1.9872,1.9858,1.9879,1.9883,1.9886,1.9887,1.9895,1.9893,1.9893,1.9871,1.9902,1.9901,1.99,1.99,1.9817,1.9815,0,0,0,0,0,0,1.9848,1.985,1.9843,1.9844,1.986,1.9869,1.9871,1.9868,1.988,1.9883,1.9886,1.9889,1.9894,1.9894,1.9894,1.9851,1.9901,1.99,1.9899,1.9819,1.9817,1.9815,0,0,0,0,0,0,1.9848,1.9847,1.9843,1.9848,1.9848,1.9867,1.9863,1.9867,1.9866,1.9882,1.9885,1.9881,1.9896,1.9895,1.9875,1.9852,1.9899,1.9899,1.9821,1.9818,1.9816,1.9767,0,0,0,0,0,0,1.9848,1.9846,1.9834,1.9847,1.9847,1.9825,1.9862,1.9866,1.9864,1.9868,1.9878,1.9881,1.9897,1.9876,1.9874,1.9852,1.9898,1.9823,1.9819,1.9816,1.9771,1.9763,1.9757,0,0,0,0,0,1.9848,1.982,1.9834,1.9832,1.9833,1.9823,1.9823,1.9843,1.9862,1.9849,1.9859,1.9881,1.9855,1.9874,1.9872,1.9849,1.9824,1.982,1.9817,1.9774,1.9765,1.9757,0,0,0,0,0,0,1.9804,1.9823,1.9837,1.9813,1.9816,1.983,1.9815,1.9833,1.983,1.9834,1.9858,1.9859,1.9835,1.984,1.986,1.9814,1.9843,1.9839,1.9811,1.9803,1.9796,1.9794,1.9897,0,0,0,0,0,1.9792,1.9783,1.98,1.9777,1.9778,1.9796,1.9792,1.9807,1.9811,1.9812,1.9821,1.9823,1.9815,1.981,1.9804,1.9772,1.9773,1.9755,1.9748,1.9743,1.9738,1.9718,1.9709,1.9803,1.9803,1.9803,0,0,1.9766,1.9775,1.9768,1.9768,1.9772,1.9761,1.9797,1.9784,1.9776,1.981,1.9791,1.9797,1.9801,1.9774,1.9763,1.9777,1.9712,1.9738,1.9733,1.9731,1.9714,1.9705,1.9697,1.98,1.9801,1.9801,0,0,1.9712,1.972,1.97,1.9703,1.9709,1.9721,1.9716,1.9727,1.9732,1.9714,1.9738,1.9728,1.9715,1.9716,1.9715,1.9659,1.9677,1.9657,1.962,1.96,1.9593,1.9586,1.9564,1.9555,1.9653,1.9652,1.9652,0,1.9679,1.9665,1.9687,1.9673,1.967,1.9702,1.968,1.9682,1.9685,1.9682,1.9699,1.9682,1.9687,1.9659,1.9645,1.9644,1.9637,1.9655,1.9592,1.9586,1.958,1.9559,1.955,1.965,1.965,1.965,1.9651,0,1.9622,1.9611,1.9595,1.9596,1.9593,1.9575,1.9593,1.9587,1.9601,1.9611,1.9589,1.9597,1.9591,1.9586,1.9601,1.9559,1.9568,1.9588,1.9618,1.9568,1.9548,1.954,1.9646,1.9647,1.9647,1.9648,0,0,1.9541,1.9555,1.9548,1.9548,1.9556,1.9547,1.953,1.9525,1.9517,1.9518,1.9502,1.949,1.9508,1.9506,1.9521,1.9504,1.9456,1.9526,1.9527,1.951,1.9407,1.939,1.938,1.9469,1.9468,1.9466,1.9406,0,1.9488,1.9459,1.9478,1.9446,1.9434,1.9463,1.9447,1.9449,1.9458,1.9448,1.9457,1.9447,1.9473,1.9472,1.9457,1.9465,1.9435,1.947,1.9452,1.9451,1.9447,1.937,1.9352,1.9295,1.9398,1.9397,1.9396,0,1.9422,1.942,1.9386,1.9393,1.9389,1.9375,1.937,1.9362,1.9364,1.9371,1.9368,1.9386,1.9367,1.9398,1.9371,1.9394,1.9388,1.939,1.9389,1.9386,1.9419,1.9362,1.9277,1.9267,1.9385,1.9386,1.9387,0,1.9363,1.9351,1.9328,1.9328,1.9337,1.9326,1.9329,1.9333,1.9327,1.9323,1.9319,1.9313,1.9309,1.9303,1.9318,1.9339,1.9287,1.932,1.929,1.929,1.9276,1.9277,1.9186,1.9277,1.9277,1.9277,1.9277,0,1.93,1.9277,1.9301,1.9287,1.9262,1.9283,1.9257,1.9263,1.9266,1.9252,1.9277,1.9263,1.9285,1.9273,1.9285,1.9258,1.9257,1.9261,1.9263,1.9257,1.9256,1.9251,1.9254,1.9275,1.9276,1.9276,1.9276,0,1.9228,1.9244,1.9221,1.9231,1.9233,1.9213,1.9221,1.9208,1.9217,1.9199,1.9196,1.9211,1.9197,1.9212,1.9201,1.9208,1.9172,1.9182,1.9171,1.9173,1.9141,1.9143,1.9042,1.9029,1.9131,1.913,1.9129,0,1.9186,1.9169,1.9177,1.917,1.9171,1.9159,1.9154,1.9174,1.9167,1.9167,1.9152,1.9141,1.9133,1.911,1.9118,1.9109,1.9117,1.9082,1.9115,1.9108,1.9112,1.9112,1.9109,1.9075,1.9074,1.9073,1.9072,0,1.9108,1.9116,1.9108,1.9101,1.9094,1.909,1.9087,1.9079,1.91,1.909,1.9077,1.9071,1.9058,1.9045,1.9038,1.9039,1.9057,1.9062,1.9054,1.9045,1.9038,1.9038,1.9149,1.9063,1.9064,1.9065,1.9065,1.9066,1.9048,1.9033,1.9035,1.9024,1.9024,1.9021,1.9008,1.9015,1.9005,1.8996,1.9008,1.8991,1.8991,1.8983,1.8982,1.8967,1.8982,1.8971,1.8968,1.8964,1.8958,1.9043,1.8966,1.8967,1.8967,1.8967,1.8967,0,1.8968,1.8971,1.8961,1.8956,1.8946,1.8966,1.8964,1.8954,1.8938,1.8938,1.8929,1.8912,1.8899,1.8906,1.8895,1.8882,1.8889,1.8878,1.8877,1.8877,1.8947,1.8954,1.8871,1.8871,1.8871,1.8871,1.8871,1.8871,1.8926,1.89,1.8908,1.8882,1.8885,1.8869,1.8865,1.8861,1.886,1.884,1.883,1.8835,1.8836,1.8825,1.8813,1.8816,1.8809,1.8793,1.8798,1.8863,1.8872,1.8881,1.8887,1.8792,1.8792,1.8729,1.8728,1.8728]}]]